Location: Unspecified
(0.0000°N, 0.0000°E)
Time: 20:51:01
(UTC+00:00)

N. Korean satellite - Pass Details

Date: 24 March 2023
Orbit: 390 x 416 km, 97.3° (Epoch: 29 March)

Event Time Altitude Azimuth Distance (km) Brightness Sun altitude
Rises 05:22:42 0° 357° (N) 2,284 10.0 -10.9°
Reaches altitude 10° 05:24:46 10° 347° (NNW) 1,427 8.8 -10.4°
Maximum altitude 05:27:33 33° 281° (W) 684 6.8 -9.7°
Drops below altitude 10° 05:30:19 10° 215° (SW) 1,425 8.6 -9.0°
Sets 05:32:24 0° 205° (SSW) 2,281 9.7 -8.5°
